Location: Kouchibouguac National Park
(46.7962°N, 64.9642°W)
Time: 11:35:40
(UTC-04:00)

ISS - Pass Details

Date: 27 October 2019
Orbit: 412 x 421 km, 51.6° (Epoch: 15 November)

Event Time Altitude Azimuth Distance (km) Brightness Sun altitude
Exits shadow 07:07:38 - 245° (WSW) 1,694 -1.2 -8.6°
Reaches altitude 10° 07:08:06 10° 245° (WSW) 1,504 -1.4 -8.5°
Maximum altitude 07:11:29 86° 332° (NNW) 428 -3.8 -8.0°
Drops below altitude 10° 07:14:53 10° 64° (ENE) 1,507 -0.1 -7.4°
Sets 07:16:59 0° 65° (ENE) 2,372 1.0 -7.0°
